| time (UTC) | temp F | wind direction | speed MPH | gust MPH | rain 1hr in | rain 24hr in | rain mn in | humidity % | barometer mb |
| 20260506134332 | 73 | 11 | 11.0 | 17.0 | 0.00 | 0.00 | 0.00 | 94 | 1010.9 |
| 20260506133323 | 74 | 88 | 1.0 | 3.0 | 0.00 | 0.00 | 0.00 | 97 | 1010.3 |
| 20260506132333 | 74 | 88 | 1.0 | 4.0 | 0.00 | 0.00 | 0.00 | 97 | 1010.5 |
| 20260506131323 | 74 | 96 | 1.0 | 3.0 | 0.00 | 0.00 | 0.00 | 98 | 1010.4 |
| 20260506130335 | 74 | 103 | 0.0 | 3.0 | 0.00 | 0.00 | 0.00 | 98 | 1010.0 |
| 20260506125326 | 74 | 100 | 0.0 | 2.0 | 0.00 | 0.00 | 0.00 | 98 | 1009.9 |
| 20260506124337 | 73 | 140 | 0.0 | 1.0 | 0.00 | 0.00 | 0.00 | 98 | 1009.8 |
| 20260506123330 | 73 | 140 | 0.0 | 1.0 | 0.00 | 0.00 | 0.00 | 98 | 1009.8 |
| 20260506122340 | 73 | 140 | 0.0 | 1.0 | 0.00 | 0.00 | 0.00 | 98 | 1009.6 |
| 20260506121332 | 73 | 140 | 0.0 | 1.0 | 0.00 | 0.00 | 0.00 | 98 | 1009.6 |
| 20260506120342 | 73 | 140 | 0.0 | 1.0 | 0.00 | 0.00 | 0.00 | 97 | 1009.5 |
| 20260506115334 | 73 | 140 | 0.0 | 1.0 | 0.00 | 0.00 | 0.00 | 97 | 1009.4 |
| 20260506114345 | 73 | 140 | 0.0 | 1.0 | 0.00 | 0.00 | 0.00 | 97 | 1009.4 |
| 20260506113332 | 73 | 140 | 0.0 | 1.0 | 0.00 | 0.00 | 0.00 | 97 | 1009.5 |
| 20260506112344 | 73 | 140 | 0.0 | 1.0 | 0.00 | 0.00 | 0.00 | 96 | 1009.6 |
| 20260506111326 | 74 | 140 | 0.0 | 2.0 | 0.00 | 0.00 | 0.00 | 96 | 1009.5 |
| 20260506110346 | 74 | 196 | 0.0 | 3.0 | 0.00 | 0.00 | 0.00 | 96 | 1009.5 |
| 20260506105328 | 74 | 148 | 0.0 | 3.0 | 0.00 | 0.00 | 0.00 | 96 | 1009.4 |
| 20260506104338 | 74 | 144 | 0.0 | 3.0 | 0.00 | 0.00 | 0.00 | 96 | 1009.5 |
| 20260506103329 | 74 | 141 | 0.0 | 1.0 | 0.00 | 0.00 | 0.00 | 96 | 1009.4 |
| 20260506102340 | 74 | 141 | 0.0 | 1.0 | 0.00 | 0.00 | 0.00 | 96 | 1009.2 |
| 20260506101330 | 74 | 140 | 0.0 | 2.0 | 0.00 | 0.00 | 0.00 | 96 | 1009.2 |
| 20260506100337 | 74 | 133 | 0.0 | 2.0 | 0.00 | 0.00 | 0.00 | 95 | 1009.1 |
| 20260506095329 | 75 | 162 | 0.0 | 4.0 | 0.00 | 0.00 | 0.00 | 95 | 1009.0 |
| 20260506094341 | 75 | 146 | 2.0 | 5.0 | 0.00 | 0.00 | 0.00 | 94 | 1008.8 |
| 20260506093332 | 75 | 145 | 1.0 | 5.0 | 0.00 | 0.00 | 0.00 | 93 | 1008.7 |
| 20260506092340 | 75 | 107 | 1.0 | 3.0 | 0.00 | 0.00 | 0.00 | 93 | 1008.6 |
| 20260506091330 | 75 | 134 | 1.0 | 4.0 | 0.00 | 0.00 | 0.00 | 92 | 1008.7 |
| 20260506090341 | 75 | 123 | 0.0 | 4.0 | 0.00 | 0.00 | 0.00 | 92 | 1008.7 |
| 20260506085332 | 75 | 129 | 1.0 | 5.0 | 0.00 | 0.00 | 0.00 | 92 | 1008.6 |
| 20260506084343 | 76 | 131 | 3.0 | 9.0 | 0.00 | 0.00 | 0.00 | 92 | 1008.6 |
| 20260506083334 | 76 | 152 | 1.0 | 7.0 | 0.00 | 0.00 | 0.00 | 92 | 1008.6 |
| 20260506082346 | 75 | 158 | 1.0 | 5.0 | 0.00 | 0.00 | 0.00 | 92 | 1008.5 |
| 20260506081337 | 76 | 198 | 2.0 | 6.0 | 0.00 | 0.00 | 0.00 | 92 | 1008.5 |
| 20260506080347 | 76 | 182 | 2.0 | 7.0 | 0.00 | 0.00 | 0.00 | 92 | 1008.6 |
| 20260506073331 | 76 | 167 | 4.0 | 12.0 | 0.00 | 0.00 | 0.00 | 91 | 1008.6 |
| 20260506072323 | 76 | 124 | 5.0 | 11.0 | 0.00 | 0.00 | 0.00 | 91 | 1008.6 |
| 20260506071333 | 76 | 182 | 7.0 | 14.0 | 0.00 | 0.00 | 0.00 | 92 | 1008.6 |
| 20260506070324 | 76 | 191 | 2.0 | 11.0 | 0.00 | 0.00 | 0.00 | 92 | 1008.6 |
| 20260506062324 | 76 | 103 | 5.0 | 10.0 | 0.00 | 0.00 | 0.00 | 92 | 1008.5 |
| 20260506061334 | 76 | 126 | 3.0 | 12.0 | 0.00 | 0.00 | 0.00 | 92 | 1008.4 |
| 20260506060325 | 76 | 157 | 3.0 | 8.0 | 0.00 | 0.00 | 0.00 | 92 | 1008.5 |
| 20260506051337 | 76 | 140 | 3.0 | 9.0 | 0.00 | 0.00 | 0.00 | 92 | 1008.5 |
| 20260506050350 | 76 | 157 | 5.0 | 10.0 | 0.00 | 0.00 | 0.00 | 92 | 1008.6 |
| 20260506044339 | 76 | 186 | 4.0 | 10.0 | 0.00 | 0.00 | 0.00 | 92 | 1008.5 |
| 20260506043350 | 76 | 108 | 4.0 | 10.0 | 0.00 | 0.00 | 0.00 | 92 | 1008.6 |
| 20260506042340 | 76 | 157 | 2.0 | 7.0 | 0.00 | 0.00 | 0.00 | 91 | 1008.4 |
| 20260506041323 | 76 | 164 | 3.0 | 8.0 | 0.00 | 0.00 | 0.00 | 91 | 1008.4 |
| 20260506040344 | 76 | 160 | 1.0 | 5.0 | 0.00 | 0.00 | 0.00 | 91 | 1008.5 |
| 20260506035325 | 77 | 163 | 1.0 | 5.0 | 0.00 | 0.00 | 0.00 | 90 | 1008.3 |
| 20260506034337 | 77 | 142 | 1.0 | 7.0 | 0.00 | 0.00 | 0.00 | 89 | 1008.1 |
| 20260506033328 | 77 | 125 | 2.0 | 7.0 | 0.00 | 0.00 | 0.00 | 88 | 1007.9 |
| 20260506032339 | 78 | 127 | 2.0 | 8.0 | 0.00 | 0.00 | 0.00 | 87 | 1008.0 |
| 20260506031329 | 78 | 179 | 3.0 | 9.0 | 0.00 | 0.00 | 0.00 | 87 | 1007.8 |
| 20260506030340 | 78 | 150 | 3.0 | 6.0 | 0.00 | 0.00 | 0.00 | 86 | 1007.6 |
| 20260506025330 | 78 | 134 | 2.0 | 6.0 | 0.00 | 0.00 | 0.00 | 86 | 1007.5 |
| 20260506024340 | 78 | 175 | 1.0 | 6.0 | 0.00 | 0.00 | 0.00 | 86 | 1007.5 |
| 20260506023331 | 79 | 153 | 1.0 | 5.0 | 0.00 | 0.00 | 0.00 | 85 | 1007.3 |
| 20260506022322 | 79 | 161 | 1.0 | 7.0 | 0.00 | 0.00 | 0.00 | 85 | 1007.0 |
| 20260506021334 | 79 | 134 | 1.0 | 4.0 | 0.00 | 0.00 | 0.00 | 85 | 1006.9 |
| 20260506020325 | 79 | 139 | 1.0 | 4.0 | 0.00 | 0.00 | 0.00 | 84 | 1006.7 |
| 20260506015336 | 79 | 149 | 0.0 | 4.0 | 0.00 | 0.00 | 0.00 | 84 | 1006.8 |
| 20260506014330 | 80 | 139 | 0.0 | 4.0 | 0.00 | 0.00 | 0.00 | 83 | 1006.6 |
| 20260506013339 | 80 | 103 | 1.0 | 5.0 | 0.00 | 0.00 | 0.00 | 82 | 1006.5 |
| 20260506012346 | 80 | 131 | 2.0 | 7.0 | 0.00 | 0.00 | 0.00 | 81 | 1006.4 |
| 20260506011325 | 81 | 151 | 2.0 | 5.0 | 0.00 | 0.00 | 0.00 | 80 | 1006.3 |
| 20260506010344 | 82 | 126 | 3.0 | 7.0 | 0.00 | 0.00 | 0.00 | 78 | 1006.3 |
| 20260506005326 | 82 | 146 | 3.0 | 7.0 | 0.00 | 0.00 | 0.00 | 77 | 1006.3 |
| 20260506004337 | 83 | 150 | 4.0 | 8.0 | 0.00 | 0.00 | 0.00 | 76 | 1006.3 |
| 20260506003325 | 83 | 205 | 3.0 | 11.0 | 0.00 | 0.00 | 0.00 | 76 | 1006.2 |
| 20260506002336 | 84 | 233 | 4.0 | 9.0 | 0.00 | 0.00 | 0.00 | 75 | 1006.3 |
| 20260506001327 | 83 | 124 | 5.0 | 7.0 | 0.00 | 0.00 | 0.00 | 76 | 1006.3 |
| 20260506000339 | 83 | 91 | 3.0 | 8.0 | 0.00 | 0.00 | 0.00 | 76 | 1006.2 |
| 20260505235328 | 84 | 181 | 1.0 | 7.0 | 0.00 | 0.00 | 0.00 | 75 | 1006.3 |
| 20260505234340 | 84 | 129 | 3.0 | 8.0 | 0.00 | 0.00 | 0.00 | 75 | 1006.2 |
| 20260505233330 | 84 | 123 | 4.0 | 10.0 | 0.00 | 0.00 | 0.00 | 74 | 1006.1 |
| 20260505232341 | 84 | 243 | 4.0 | 10.0 | 0.00 | 0.00 | 0.00 | 73 | 1006.1 |
| 20260505231330 | 85 | 172 | 4.0 | 7.0 | 0.00 | 0.00 | 0.00 | 73 | 1006.0 |
| 20260505230339 | 85 | 207 | 5.0 | 9.0 | 0.00 | 0.00 | 0.00 | 72 | 1005.9 |
| 20260505225330 | 85 | 126 | 3.0 | 10.0 | 0.00 | 0.00 | 0.00 | 73 | 1005.8 |
| 20260505224337 | 85 | 193 | 5.0 | 13.0 | 0.00 | 0.00 | 0.00 | 73 | 1005.7 |
| 20260505223328 | 85 | 127 | 4.0 | 15.0 | 0.00 | 0.00 | 0.00 | 73 | 1005.9 |
| 20260505222335 | 85 | 214 | 5.0 | 14.0 | 0.00 | 0.00 | 0.00 | 72 | 1005.7 |
| 20260505221326 | 85 | 162 | 5.0 | 13.0 | 0.00 | 0.00 | 0.00 | 72 | 1005.7 |
| 20260505220338 | 86 | 127 | 5.0 | 11.0 | 0.00 | 0.00 | 0.00 | 71 | 1005.8 |
| 20260505215348 | 86 | 221 | 5.0 | 12.0 | 0.00 | 0.00 | 0.00 | 71 | 1005.8 |
| 20260505214339 | 86 | 116 | 7.0 | 15.0 | 0.00 | 0.00 | 0.00 | 71 | 1006.0 |
| 20260505213350 | 87 | 154 | 5.0 | 12.0 | 0.00 | 0.00 | 0.00 | 71 | 1005.9 |
| 20260505212331 | 87 | 121 | 4.0 | 12.0 | 0.00 | 0.00 | 0.00 | 70 | 1006.2 |
| 20260505211322 | 87 | 245 | 6.0 | 14.0 | 0.00 | 0.00 | 0.00 | 71 | 1006.4 |
| 20260505210329 | 86 | 245 | 4.0 | 11.0 | 0.00 | 0.00 | 0.00 | 72 | 1006.5 |
| 20260505205339 | 86 | 109 | 6.0 | 16.0 | 0.00 | 0.00 | 0.00 | 72 | 1006.5 |
| 20260505204331 | 86 | 179 | 4.0 | 13.0 | 0.00 | 0.00 | 0.00 | 72 | 1006.7 |
| 20260505203322 | 85 | 115 | 7.0 | 13.0 | 0.00 | 0.00 | 0.00 | 72 | 1006.6 |
| 20260505202334 | 86 | 129 | 6.0 | 12.0 | 0.00 | 0.00 | 0.00 | 71 | 1006.9 |
| 20260505201324 | 87 | 217 | 5.0 | 11.0 | 0.00 | 0.00 | 0.00 | 69 | 1007.0 |
| 20260505200333 | 87 | 156 | 5.0 | 13.0 | 0.00 | 0.00 | 0.00 | 68 | 1007.1 |
| 20260505195324 | 86 | 130 | 5.0 | 12.0 | 0.00 | 0.00 | 0.00 | 71 | 1007.1 |
| 20260505194336 | 85 | 231 | 8.0 | 16.0 | 0.00 | 0.00 | 0.00 | 70 | 1007.4 |
| 20260505193327 | 85 | 157 | 5.0 | 14.0 | 0.00 | 0.00 | 0.00 | 72 | 1007.5 |
| 20260505192337 | 85 | 206 | 5.0 | 10.0 | 0.00 | 0.00 | 0.00 | 71 | 1007.6 |
| 20260505191328 | 84 | 158 | 6.0 | 13.0 | 0.00 | 0.00 | 0.00 | 73 | 1007.7 |
| 20260505190338 | 84 | 153 | 5.0 | 11.0 | 0.00 | 0.00 | 0.00 | 72 | 1007.7 |
| 20260505185329 | 83 | 169 | 7.0 | 14.0 | 0.00 | 0.00 | 0.00 | 72 | 1007.7 |
| 20260505184340 | 84 | 146 | 5.0 | 13.0 | 0.00 | 0.00 | 0.00 | 72 | 1007.9 |
| 20260505183323 | 82 | 250 | 5.0 | 12.0 | 0.00 | 0.00 | 0.00 | 74 | 1008.1 |
| 20260505182343 | 82 | 253 | 6.0 | 14.0 | 0.00 | 0.00 | 0.00 | 74 | 1008.3 |
| 20260505181325 | 81 | 201 | 3.0 | 14.0 | 0.00 | 0.00 | 0.00 | 77 | 1008.5 |
| 20260505180336 | 81 | 218 | 5.0 | 12.0 | 0.00 | 0.00 | 0.00 | 77 | 1008.5 |
| 20260505175328 | 80 | 207 | 5.0 | 9.0 | 0.00 | 0.00 | 0.00 | 79 | 1008.6 |
| 20260505174337 | 79 | 243 | 7.0 | 13.0 | 0.00 | 0.00 | 0.00 | 80 | 1008.8 |
| 20260505173328 | 78 | 238 | 7.0 | 14.0 | 0.00 | 0.00 | 0.00 | 81 | 1008.9 |
| 20260505172340 | 78 | 240 | 6.0 | 16.0 | 0.00 | 0.00 | 0.00 | 82 | 1008.8 |
| 20260505171330 | 77 | 155 | 5.0 | 13.0 | 0.00 | 0.00 | 0.00 | 83 | 1008.9 |
| 20260505170322 | 77 | 221 | 6.0 | 12.0 | 0.00 | 0.00 | 0.00 | 84 | 1008.9 |
| 20260505165333 | 76 | 250 | 3.0 | 9.0 | 0.00 | 0.00 | 0.00 | 85 | 1008.9 |
| 20260505164323 | 76 | 222 | 3.0 | 12.0 | 0.00 | 0.00 | 0.00 | 85 | 1008.9 |
| 20260505163330 | 76 | 231 | 3.0 | 9.0 | 0.00 | 0.00 | 0.00 | 86 | 1008.9 |
| 20260505162322 | 75 | 139 | 4.0 | 10.0 | 0.00 | 0.00 | 0.00 | 87 | 1009.0 |
| 20260505161334 | 74 | 212 | 3.0 | 10.0 | 0.00 | 0.00 | 0.00 | 87 | 1009.0 |
| 20260505160345 | 74 | 146 | 5.0 | 12.0 | 0.00 | 0.00 | 0.00 | 87 | 1008.9 |
| 20260505153324 | 73 | 194 | 5.0 | 9.0 | 0.00 | 0.00 | 0.00 | 89 | 1008.9 |
| 20260505152345 | 73 | 217 | 4.0 | 8.0 | 0.00 | 0.00 | 0.00 | 89 | 1008.9 |
| 20260505151327 | 73 | 235 | 2.0 | 7.0 | 0.00 | 0.00 | 0.00 | 90 | 1009.0 |
| 20260505150347 | 73 | 212 | 5.0 | 11.0 | 0.00 | 0.00 | 0.00 | 90 | 1008.9 |
| 20260505140340 | 72 | 224 | 6.0 | 11.0 | 0.00 | 0.00 | 0.00 | 91 | 1008.4 |